Powrót do katalogu

STARLINK-31840

AktywnyŁącznośćVLEO
NORAD 60127·PAYLOAD·🇺🇸 United States

Wystrzelony Jun 24, 2024 z Vandenberg Space Force Base

Loading…

Następne Przeloty (najbliższe 24 godziny)

TLE

ŚwieżeSource: CelesTrak SupGP

Epoka: Sep 14, 2026, 20:47 UTC

1 60127C 24118Q   26257.86645833  .00037792  00000+0  12149-2 0  2570
2 60127  53.1589 226.7486 0001448  95.3564  62.0267 15.31692090    13

Śledź STARLINK-31840 w czasie rzeczywistym z AllMySat

Download on the App Store